Location: Albany
(42.6526°N, 73.7562°W)
Time: 00:24:54
(UTC+00:00)

CENTAUR R/B - Pass Details

Date: 19 November 2019
Orbit: 779 x 1409 km, 63.4° (Epoch: 01 December)

Event Time Altitude Azimuth Distance (km) Brightness Sun altitude
Rises 22:47:08 0° 319° (NW) 3,960 6.1 -14.3°
Reaches altitude 10° 22:50:45 10° 338° (NNW) 3,117 5.2 -14.9°
Maximum altitude 22:55:54 19° 21° (NNE) 2,639 4.4 -15.9°
Enters shadow 22:58:48 16° 46° (NE) 2,898 4.5 -16.4°
